This is the latest recevied weather packets stored in our database for station/object SP5EB-3. If no packets are shown the sender has not sent any weather packets the latest 1 day(s).
| Time | Temp. | Humidity | Pressure | Rain* | Wind** | Luminosity | Snow |
|---|---|---|---|---|---|---|---|
| 1778059749 | 21.67° C | 99% | 1003.6 hPa | - | - | - | - |
| 1778059131 | 21.67° C | 99% | 1003.6 hPa | - | - | - | - |
| 1778058822 | 21.67° C | 99% | 1003.7 hPa | - | - | - | - |
| 1778058205 | 21.67° C | 99% | 1003.5 hPa | - | - | - | - |
| 1778057896 | 21.67° C | 99% | 1003.5 hPa | - | - | - | - |
| 1778057278 | 21.67° C | 99% | 1003.5 hPa | - | - | - | - |
| 1778056969 | 21.67° C | 99% | 1003.4 hPa | - | - | - | - |
| 1778056661 | 21.67° C | 99% | 1003.5 hPa | - | - | - | - |
| 1778055735 | 21.67° C | 99% | 1003.3 hPa | - | - | - | - |
| 1778055425 | 21.67° C | 99% | 1003.2 hPa | - | - | - | - |
| 1778054808 | 21.67° C | 99% | 1003.2 hPa | - | - | - | - |
| 1778054191 | 21.11° C | 99% | 1003 hPa | - | - | - | - |
| 1778053882 | 21.11° C | 99% | 1003.2 hPa | - | - | - | - |
| 1778052956 | 20.56° C | 99% | 1003.3 hPa | - | - | - | - |
| 1778052647 | 20.56° C | 99% | 1003.2 hPa | - | - | - | - |
| 1778052339 | 20° C | 99% | 1003.4 hPa | - | - | - | - |
| 1778051413 | 18.89° C | 99% | 1003.3 hPa | - | - | - | - |
| 1778051105 | 18.89° C | 99% | 1003.4 hPa | - | - | - | - |
| 1778050797 | 18.33° C | 99% | 1003.3 hPa | - | - | - | - |
| 1778050489 | 18.33° C | 99% | 1003.3 hPa | - | - | - | - |
| 1778050181 | 17.78° C | 99% | 1003.2 hPa | - | - | - | - |
| 1778049564 | 17.22° C | 99% | 1003.2 hPa | - | - | - | - |
| 1778049256 | 17.22° C | 1% | 1003.3 hPa | - | - | - | - |
| 1778048948 | 16.67° C | 1% | 1003.4 hPa | - | - | - | - |
| 1778047716 | 15.56° C | 99% | 1003.5 hPa | - | - | - | - |
* Rain since midnight (hover to see other rain measurements)
** Current wind speed in m/s (hover to see current wind gust speed)